User: anonymous   Login
Location: �perlecques
(50.8057°N, 2.1521°E)
Time: 15:58:58
(UTC+00:00)
Language:

SAR-Lupe-2 - Orbit

View from above orbital plane
View from above orbital plane
View from above satellite
View from above satellite

Ground track
Ground track

The orbit data is extracted from the following two-line orbital elements,

1 31797U 07030A   21159.95290847 0.00001100  00000-0  40943-4 0    08
2 31797  98.1196  66.0616 0001001 110.0377 249.9622 15.27519967    05
Epoch (UTC): 08 June 2021 22:52:11
Eccentricity: 0.0001001
inclination: 98.1196°
perigee height: 482 km
apogee height: 484 km
right ascension of ascending node: 66.0616°
argument of perigee: 110.0377°
revolutions per day: 15.27519967
mean anomaly at epoch: 249.9622°
orbit number at epoch: 0

The dashed part of the orbit path shows where the satellite is in the earth's shadow,  

DLR